一网星座-0285星 (ONEWEB-0285 )

导读 | 豆包AI

ONEWEB-0285是英国OneWeb公司低轨宽带卫星星座的组网卫星之一,于2021年8月21日发射入轨。它属于OneWeb一期全球覆盖星座,运行在近地轨道,旨在为全球偏远地区、基础设施薄弱区域提供高速低延迟的互联网接入服务,可支撑应急通信、航空海运联网、缩小数字鸿沟等应用,助力全球无缝互联覆盖。

基本信息
目录编号:
49075
目录名称:
ONEWEB-0285
国际标识:
2021-075A
轨道中心:
EARTH
卫星名称:
一网星座-0285星
卫星全名:
一网星座-0285星 (ONEWEB-0285 )
卫星状态:
在轨 (已飞行1666 天)
发射日期:
2021-08-21 UTC
国别 :
英国 (GB)
星等 :
--
轨道信息
数据来源 国际轨道数据 AOE轨道数据
星历时间 2026-03-14T02:19:53+0800
12小时前
查看轨道信息
2026-03-11T15:00:00+0800
3天前
查看轨道信息
半长轴 7591.865km 7591.846km
偏心率 0.0001873 0.0001876
轨道倾角 87.901° 87.900°
近地点辐角 79.818° 89.042°
升交点赤经 9.601° 10.091°
平近点角 280.316° 117.399°
近地点 1212.306km 1212.284km
远地点 1215.15km 1215.134km
周期 109.719分钟 109.719分钟
每日圈数 13.12442 13.124468
详细信息
平衡模式:
三轴稳定
覆盖范围:
全球
运营商:
一网卫星公司
运营商所在国:
英国
制造商(研发单位):
一网卫星公司
制造商所在国:
英国
使用方式:
暂无
卫星简介
OneWeb卫星网络由648颗重约125公斤的微型卫星组成,运行在1200公里的轨道上。 每颗卫星都能够提供至少每秒8千兆位的吞吐量,以使用其高吞吐量的Ku频段有效载荷为家庭和移动平台提供互联网接入。该卫星仍在工作。
2D轨道图
3D轨道图
轨道高度分析图
轨道倾角分析图
轨道综合分析图
查看轨道综合分析图